Regional Weather Roundup
Issued by NWS Nashville, TN

Home | Current Version | Previous Version | Text Only | Print | Product List | Glossary On
Versions: 1 2 3 4 5 6 7 8 9 10 11 12 13 14 15 16 17 18 19 20 21 22 23 24 25 26 27 28 29 30 31 32 33 34 35 36 37 38 39 40 41 42 43 44 45 46 47 48 49 50
000
ASUS44 KOHX 300515
RWROHX
MIDDLE TENNESSEE HOURLY WEATHER ROUNDUP
NATIONAL WEATHER SERVICE NASHVILLE TN
1200 AM CDT WED JUL 30 2014

NOTE: "FAIR" INDICATES FEW OR NO CLOUDS BELOW 12,000 FEET WITH
NO SIGNIFICANT WEATHER AND/OR OBSTRUCTIONS TO VISIBILITY.

* THESE REPORTS ARE NOT UNDER NWS QUALITY CONTROL AND MAY NOT
  REPORT WEATHER SUCH AS PRECIPITATION AND FOG.


TNZ005>011-023>034-057-059-062>066-078-080-300600
...NORTHERN MIDDLE TENNESSEE...

CITY           SKY/WX    TMP DP  RH WIND       PRES   REMARKS
CLARKSVILLE    CLEAR     62  55  77 CALM      30.10S
CROSSVILLE     CLEAR     57  53  86 CALM      30.13S
DICKSON        CLEAR     61  54  77 CALM      30.11R
LEBANON        CLEAR     60  55  83 CALM      30.09R
NASHVILLE      CLEAR     64  55  72 CALM      30.10S
WEST NASHVILLE   N/A     63  61  94 CALM      30.10R
PORTLAND       CLEAR     57  55  94 CALM      30.10S
SMYRNA         CLEAR     60  57  89 CALM      30.11R
SPARTA         CLEAR     55  55 100 CALM      30.11R
$$
TNZ056-058-060-061-075>077-079-093>097-300600
...SOUTHERN MIDDLE TENNESSEE...

CITY           SKY/WX    TMP DP  RH WIND       PRES   REMARKS
COLUMBIA       CLEAR     61  57  88 CALM      30.09S
FAYETTEVILLE   CLEAR     61  54  77 N9G20     30.10S
LEWISBURG      CLEAR     57  54  90 CALM      30.10R
MCMINNVILLE    CLEAR     57  57 100 CALM      30.11S
MURFREESBORO   CLEAR     63  58  83 CALM      30.10R
SHELBYVILLE    CLEAR     57  57 100 CALM      30.11S
TULLAHOMA      CLEAR     57  54  88 CALM      30.11S
WINCHESTER     CLEAR     57  55  94 CALM      30.11S
$$


...KEY TO REMARKS...
VSB - VISIBILITY IN MILES
WCI - WIND CHILL INDEX
HX  - HEAT INDEX



USA.gov is the U.S. government's official web portal to all federal, state and local government web resources and services.